Theta_e
336 337 338 338 338 340 342 344 344 345 345 346 346 346 347 347 348 348 351 351 350 348 349 349 348 347 348 349 349 352 353 353 354 353 353 353 353 352 352 351 349 351 351 350 348 351 349 347 348 346 346 346 344 343 343 342 341 341 339 341 342 339 338 338 339 339 336 335 334 336 337 338 338 339 341 340 339 341 342 344 344 343 343 345 349
335 334 336 336 337 338 340 341 344 341 343 345 345 346 346 347 347 348 350 350 349 349 349 350 350 349 348 348 348 350 353 354 352 352 352 353 352 352 352 350 350 351 354 351 351 349 348 346 345 345 343 346 345 345 343 345 345 341 339 338 338 338 337 338 339 337 332 331 330 331 333 335 338 338 339 338 338 339 340 343 344 342 343 346 348
332 334 335 335 336 337 338 340 341 343 343 344 345 346 346 346 347 348 349 349 349 350 349 350 350 352 350 349 350 349 352 356 353 356 356 352 352 352 352 350 350 350 353 352 350 348 348 347 346 344 344 345 345 343 343 343 341 341 338 339 338 338 338 339 339 338 335 332 331 328 325 327 333 334 335 337 338 338 340 340 342 341 341 345 347
331 332 333 335 335 336 337 338 340 341 343 343 344 344 345 347 346 347 348 350 350 350 352 351 352 353 352 352 352 351 350 356 351 352 354 351 350 352 352 351 351 351 352 353 352 350 348 347 347 345 344 345 345 343 340 340 339 338 338 338 338 335 331 333 340 338 337 336 327 327 326 325 323 327 329 335 336 337 338 338 340 341 342 343 344
331 332 333 334 334 336 337 338 340 340 341 342 343 344 345 346 347 347 348 349 350 353 353 351 354 351 350 350 351 345 344 344 346 347 349 351 350 349 352 352 352 352 352 353 353 349 348 348 346 345 344 343 344 342 340 341 339 339 336 338 337 333 331 332 336 339 336 338 334 330 324 322 321 325 328 331 332 334 335 337 341 340 340 341 340
332 332 333 334 335 336 338 339 339 340 341 343 344 345 346 346 347 348 348 349 350 350 353 352 353 349 347 346 344 343 342 339 341 342 344 347 349 350 352 353 354 353 352 352 353 351 348 346 345 344 342 342 344 342 342 338 337 337 337 337 334 334 336 332 332 335 337 338 338 336 332 327 326 327 327 324 333 333 335 339 338 338 339 337 339
332 334 334 334 335 336 338 338 339 339 341 343 344 345 346 347 348 348 348 349 350 351 353 353 351 349 348 347 346 344 343 339 338 341 345 348 349 348 350 352 353 353 350 350 350 350 346 344 343 342 342 340 345 340 339 339 336 334 336 337 335 336 334 332 331 331 334 337 338 337 336 336 335 330 325 326 322 329 332 333 335 337 336 337 337
332 333 334 335 336 336 337 339 340 341 342 344 344 346 346 347 348 348 349 351 350 351 352 352 350 349 347 347 347 344 343 342 335 335 341 346 344 347 348 350 349 348 346 345 346 347 344 342 341 342 341 341 345 339 338 336 336 338 340 337 337 338 336 335 333 332 333 332 336 335 335 336 335 333 332 329 325 321 323 331 332 332 333 333 336
332 333 334 335 336 336 338 339 342 343 343 344 345 346 347 348 349 349 349 350 350 351 352 352 352 349 348 347 345 345 341 341 338 342 339 342 340 341 345 345 342 342 343 343 344 344 348 342 340 340 340 342 347 338 336 335 335 337 339 338 337 339 338 338 337 335 332 333 332 332 331 330 332 333 333 332 327 323 322 324 325 330 331 332 332
333 335 336 337 337 338 339 340 342 343 344 346 346 347 348 348 348 348 348 349 350 350 352 351 351 351 347 346 345 343 340 337 337 336 334 336 337 338 340 339 338 339 339 341 342 342 345 342 340 339 339 341 345 338 336 334 332 332 335 338 335 336 338 339 338 336 335 334 333 331 330 327 328 329 329 329 329 328 323 323 325 324 323 328 332
332 334 337 338 339 339 340 340 342 344 345 346 346 347 348 348 348 348 348 349 350 350 351 350 350 350 347 345 345 342 337 334 334 333 332 332 334 334 335 336 336 337 338 340 341 342 343 343 340 338 339 345 344 335 336 336 335 335 334 333 335 335 335 335 337 337 336 335 333 332 332 330 329 329 328 328 326 324 323 323 325 326 326 325 330
333 334 336 338 338 338 340 340 341 343 345 345 346 347 348 348 348 347 348 348 349 350 350 350 350 349 347 345 344 342 337 334 333 332 331 331 332 333 334 334 333 334 337 337 338 339 342 341 341 339 341 341 337 336 336 336 336 334 335 335 335 334 334 337 334 334 334 333 333 333 334 332 331 331 330 329 328 327 326 325 325 326 326 326 328
333 334 336 337 337 337 338 339 341 342 344 345 346 347 348 348 348 347 347 348 348 349 349 349 349 348 347 344 343 341 337 335 333 332 331 331 332 333 332 331 332 333 334 335 337 338 341 338 337 337 339 341 339 335 336 336 336 335 335 335 335 334 335 337 335 335 333 332 333 333 333 332 333 333 331 330 329 328 326 323 323 323 322 323 327
333 334 336 337 338 339 339 340 341 342 344 345 346 347 347 348 348 347 347 348 348 348 349 349 348 348 347 344 342 340 336 335 333 332 331 332 332 333 332 331 331 333 332 334 337 338 340 339 339 337 338 340 339 336 336 337 336 335 335 335 334 335 333 333 334 334 333 333 333 333 333 333 333 331 331 330 329 327 324 323 322 321 321 322 323
333 334 336 338 339 340 340 341 341 342 344 345 346 347 347 347 347 347 347 347 348 348 348 348 348 347 346 343 341 339 336 334 333 333 332 331 332 333 332 331 332 332 333 335 338 338 338 337 339 337 337 337 339 338 338 337 338 337 337 335 336 334 333 334 334 333 333 333 333 334 334 333 333 332 331 332 331 330 329 327 324 319 316 317 318
333 334 336 338 340 341 341 342 342 343 344 345 346 347 347 347 347 347 347 348 348 348 348 348 348 346 344 341 339 338 339 334 333 336 333 332 332 333 331 331 332 332 334 336 337 337 337 336 339 338 336 336 338 338 337 337 336 335 335 336 335 337 334 333 335 333 333 333 333 333 332 333 333 333 332 333 331 332 331 328 326 322 317 312 315
332 334 335 337 339 341 342 343 343 344 344 345 346 348 348 348 347 347 348 348 348 349 348 348 348 345 342 341 338 337 336 332 331 332 332 333 333 332 332 332 332 333 335 337 336 336 336 336 336 338 336 336 336 338 337 336 336 336 336 334 333 334 337 335 334 333 334 333 333 332 332 332 332 333 333 333 332 332 331 330 328 324 322 316 314
333 335 336 338 339 341 342 344 344 344 345 346 347 348 349 349 348 347 348 347 347 348 348 347 347 345 341 339 337 336 335 333 332 332 333 332 332 332 332 332 332 334 335 337 336 336 334 340 335 336 336 335 335 336 336 336 335 334 334 334 334 334 333 335 335 334 334 333 333 332 332 332 334 332 333 333 333 332 330 329 328 326 325 320 318
331 333 335 337 338 340 342 343 344 345 346 347 348 349 349 349 349 349 348 348 348 349 349 348 347 345 342 339 336 335 334 332 333 334 333 332 331 331 331 332 332 333 336 337 335 334 334 335 335 334 334 334 334 334 335 335 335 334 334 334 334 334 333 333 334 334 334 334 333 332 332 332 333 333 333 332 333 332 330 329 327 326 325 325 321
330 333 335 337 339 340 342 343 343 344 345 347 347 348 348 349 349 349 349 349 349 348 349 346 345 344 341 338 336 334 334 332 333 333 332 332 332 331 331 330 331 334 334 334 335 334 334 333 334 333 333 333 333 334 334 335 334 334 333 334 334 333 332 332 333 334 333 334 333 333 333 333 333 332 332 331 331 332 331 328 327 326 325 325 324
330 332 334 336 338 340 342 343 344 345 346 347 347 347 348 349 348 349 348 348 348 348 348 347 344 342 341 336 333 333 332 333 333 332 332 332 332 333 331 331 332 332 333 332 333 333 334 334 333 335 334 333 333 333 333 333 333 333 333 333 333 333 332 332 333 333 333 333 334 333 333 333 334 332 331 331 330 330 330 328 328 326 324 324 323
330 332 333 335 337 339 341 343 344 344 344 345 346 347 347 347 348 349 349 348 348 348 347 347 344 340 338 334 333 333 333 333 332 332 332 331 331 333 332 332 330 331 333 332 332 333 334 333 332 332 334 334 333 333 332 332 332 331 332 333 333 332 331 331 332 332 333 333 333 333 333 334 334 332 331 330 330 329 328 327 327 325 324 324 323
330 331 333 335 337 338 340 341 342 343 344 344 345 346 346 347 348 348 348 348 349 348 348 347 342 337 336 335 334 333 332 332 332 331 331 331 331 332 332 331 330 330 332 332 332 332 333 333 332 333 332 332 332 332 332 331 331 331 332 332 333 333 332 332 331 332 332 333 331 332 332 333 333 331 331 330 330 329 328 327 327 326 325 325 324
329 331 333 335 336 338 338 339 341 342 343 343 344 345 346 347 347 348 348 348 349 348 347 344 339 336 335 335 334 333 332 331 331 331 331 333 332 332 333 331 330 330 330 332 332 331 332 331 331 332 331 331 331 331 331 331 331 331 331 331 332 332 332 332 332 332 332 332 331 331 331 332 332 331 331 330 329 329 328 327 327 327 326 325 325
327 329 331 333 334 335 337 338 339 341 342 343 344 344 345 346 347 347 348 349 349 349 346 342 337 335 335 335 334 333 332 331 332 332 332 332 332 332 333 331 330 330 330 330 332 332 331 330 330 330 330 330 331 331 331 331 331 332 331 332 332 332 332 332 332 332 332 332 331 331 332 332 331 330 330 329 329 327 328 327 326 327 326 326 325
326 328 328 330 333 334 336 337 339 340 341 342 343 344 344 345 346 348 348 348 348 348 345 340 336 335 334 334 334 333 332 331 332 332 333 332 333 332 332 333 332 330 330 330 329 330 332 330 330 330 330 330 331 331 331 331 331 332 332 332 332 332 332 331 331 331 331 332 332 332 331 331 330 329 329 329 329 328 328 327 326 326 326 326 325
325 326 328 329 330 332 334 336 337 339 340 341 341 342 343 344 345 346 348 348 348 346 342 337 335 335 334 334 334 333 333 333 334 333 333 333 332 333 332 332 333 331 330 330 330 329 331 332 331 330 330 330 331 331 331 331 331 332 332 332 332 331 331 331 331 331 332 332 331 331 331 331 330 330 329 329 329 328 328 327 328 327 327 326 325
324 325 325 327 329 330 332 333 335 337 339 340 341 342 342 343 344 345 347 347 346 343 338 337 335 335 334 334 334 335 334 334 335 334 333 333 333 333 332 332 333 332 331 330 330 330 330 331 331 331 331 332 331 331 330 330 331 331 331 331 331 331 331 331 332 332 332 332 332 332 331 332 332 331 331 330 330 329 329 327 328 327 327 326 324
322 323 325 325 326 328 330 331 333 335 336 338 339 340 341 342 343 345 346 346 345 341 337 336 335 335 335 335 335 335 335 335 335 334 333 333 333 333 333 332 332 332 332 331 332 331 330 330 331 331 331 332 330 330 330 330 329 329 330 329 329 330 330 330 330 331 331 331 332 332 332 333 333 332 329 328 328 326 329 328 328 328 327 326 325
321 322 323 325 326 327 329 330 331 333 335 336 337 338 339 341 342 343 345 344 342 339 336 335 335 335 335 335 335 335 334 335 335 334 333 333 333 334 334 332 332 333 332 333 331 331 330 330 329 329 330 330 330 331 333 331 331 331 329 328 328 329 329 329 330 330 331 331 331 332 333 334 330 328 327 326 324 322 322 327 330 329 327 326 325
322 322 323 324 325 326 327 329 330 331 333 335 336 338 339 340 341 343 344 341 340 337 336 335 335 335 336 336 335 335 334 334 334 334 333 332 333 333 333 333 333 333 331 331 331 330 329 329 328 328 328 329 330 331 330 326 327 331 332 330 328 328 329 330 331 331 331 332 333 333 332 332 333 332 332 328 326 324 323 322 321 321 322 326 325
320 321 322 323 324 325 326 328 329 331 332 333 334 335 337 338 340 342 342 339 338 336 335 335 335 335 335 336 335 335 333 332 331 332 332 333 333 333 332 332 332 332 331 331 330 330 330 329 329 328 329 330 330 330 324 324 326 327 330 333 331 329 329 330 331 331 331 332 332 332 332 332 332 331 331 331 329 327 323 322 321 320 319 319 320
320 322 324 324 325 326 327 328 330 331 332 333 335 335 336 338 340 342 341 337 337 335 335 335 335 335 335 335 335 334 333 331 328 329 331 333 332 332 331 331 331 332 332 331 330 330 329 329 329 329 328 330 330 327 324 324 324 324 325 328 331 331 331 331 331 331 331 331 331 330 330 330 330 329 330 331 330 328 324 322 320 319 318 317 318
321 323 325 325 327 328 328 329 331 333 335 336 337 336 337 339 341 340 338 337 336 335 335 335 335 335 334 333 333 333 330 327 327 329 330 331 331 331 330 330 330 330 330 330 330 329 329 329 329 329 329 330 330 327 323 321 321 321 322 325 329 329 330 331 331 330 330 329 329 329 328 328 329 329 329 327 326 326 326 326 326 326 325 324 320
323 325 327 328 329 330 330 330 330 332 334 335 335 337 337 338 338 338 338 336 335 335 334 334 334 334 333 332 332 332 328 327 328 328 328 330 331 331 329 329 330 330 330 330 330 329 329 330 330 330 329 329 330 325 322 321 319 318 319 324 329 329 329 329 329 328 328 328 328 327 327 327 327 327 328 327 326 326 326 325 324 323 324 325 325
326 327 329 329 330 331 332 332 334 333 334 335 336 336 335 336 337 337 337 336 335 334 334 334 333 333 332 332 332 330 328 328 330 329 329 329 331 331 330 331 332 332 332 331 331 330 330 330 330 330 329 330 331 323 321 319 317 317 320 327 326 326 326 326 326 326 326 326 326 326 326 326 326 325 322 319 322 325 324 323 323 323 324 324 324
327 329 330 331 333 334 334 335 334 334 334 335 334 334 334 334 335 335 336 335 334 333 333 333 334 333 332 332 330 328 328 328 329 328 328 329 330 331 331 332 331 331 331 330 330 330 331 330 330 330 330 330 331 325 317 316 315 315 320 325 324 324 325 324 324 324 324 324 324 325 325 326 325 326 322 318 317 319 323 322 322 322 322 322 321
324 326 328 331 333 334 335 335 333 333 333 333 332 333 333 333 333 334 334 333 333 333 333 333 333 333 332 331 330 329 329 329 329 327 329 330 332 332 332 334 332 331 330 330 331 330 331 331 330 330 331 330 330 324 315 312 312 314 320 323 323 322 322 323 323 322 322 323 324 326 327 328 327 327 319 314 313 318 321 322 321 320 320 318 319
327 328 330 332 333 334 333 332 332 331 329 331 331 332 332 332 332 333 333 333 332 333 333 333 334 333 332 331 331 330 330 329 329 329 330 331 332 332 333 334 333 332 331 332 332 330 330 330 331 331 332 331 329 322 311 311 311 311 320 322 322 322 322 323 321 321 322 323 324 323 322 322 321 320 311 311 311 314 319 320 320 318 316 315 316
331 331 331 332 334 334 331 330 330 328 329 330 331 331 332 331 332 332 332 332 332 333 334 335 335 333 332 331 331 331 331 330 330 330 331 332 333 333 332 332 332 332 331 331 331 331 329 329 330 332 332 331 327 326 323 311 309 311 317 323 323 323 323 322 321 321 323 323 321 320 321 317 312 310 308 307 307 306 316 318 317 315 314 314 315
331 332 335 330 329 329 328 328 327 328 329 330 331 331 330 331 330 330 330 332 334 334 334 334 334 333 332 332 331 332 331 331 331 331 332 333 333 332 331 331 331 331 330 330 330 330 329 327 327 328 328 326 326 325 321 309 307 309 312 318 320 322 321 320 318 318 318 317 318 318 318 316 310 307 306 305 304 304 307 313 314 315 316 314 311
336 335 331 328 328 327 327 327 327 329 330 330 330 330 329 329 329 329 331 332 333 333 333 333 333 333 332 332 332 333 333 333 333 332 332 332 331 332 331 331 331 330 329 328 327 328 327 325 325 325 325 324 327 326 319 310 308 307 308 312 320 320 320 318 317 317 316 316 317 317 317 316 310 306 303 301 302 302 304 310 314 307 305 307 312
329 329 333 329 326 325 325 326 328 329 329 329 330 330 330 330 328 330 330 331 331 332 332 332 332 332 333 333 333 334 333 334 334 333 331 329 329 329 329 329 328 327 326 325 326 326 325 323 322 321 320 322 324 325 318 315 307 304 303 306 308 311 310 315 316 316 316 315 315 315 316 314 306 300 298 299 300 302 303 308 302 302 304 305 309
331 330 330 329 325 326 325 326 327 327 328 329 330 329 329 329 328 328 329 331 330 330 331 331 333 332 332 332 332 333 333 333 332 331 331 330 329 329 329 328 328 326 325 324 324 325 325 323 322 321 319 321 323 325 317 314 309 303 301 301 301 302 306 314 314 314 314 313 314 315 314 303 298 295 297 300 302 303 310 301 300 303 306 308 311
328 330 333 328 327 325 325 325 326 327 327 328 329 330 331 327 326 329 329 329 329 329 330 330 329 330 330 331 332 332 332 331 332 331 329 329 329 329 327 327 326 325 324 324 324 324 323 321 321 321 320 320 321 320 319 315 310 306 303 303 305 305 302 301 311 313 316 316 310 303 300 301 300 300 301 303 305 305 305 304 303 305 310 311 309
328 329 332 329 327 326 325 325 325 326 327 328 328 330 329 327 328 330 329 329 329 329 329 328 329 329 330 331 331 331 332 332 332 331 330 331 330 328 327 325 324 324 324 324 323 321 320 320 321 321 320 320 319 318 317 318 317 314 310 307 307 308 308 307 309 312 309 308 306 305 304 304 305 308 314 316 314 311 307 307 308 308 310 309 309
328 329 332 328 327 325 325 325 325 326 326 327 327 329 328 328 329 329 329 329 329 329 329 329 329 330 330 331 331 330 330 330 330 330 330 330 330 329 327 325 324 323 321 321 321 320 320 319 319 320 321 320 318 316 316 315 312 312 313 312 309 312 309 308 310 311 308 311 314 314 312 308 308 310 310 309 310 309 310 309 309 309 309 308 308
327 330 330 327 326 325 325 325 325 325 327 329 329 329 329 329 329 329 329 329 330 330 329 328 328 329 329 330 330 335 331 328 329 329 328 328 326 326 325 324 322 321 320 320 321 322 321 320 320 320 320 319 317 315 314 312 309 310 310 307 309 311 308 307 308 306 306 310 314 311 311 314 312 309 308 307 308 309 309 307 307 307 306 306 306
326 328 328 326 326 326 326 325 325 326 328 329 329 329 329 329 329 329 329 329 329 330 328 327 327 328 328 331 329 332 330 328 318 311 306 306 310 314 320 318 313 315 321 322 322 322 324 323 323 320 319 317 317 315 316 308 311 305 307 307 308 308 306 307 304 300 307 312 311 311 311 308 308 307 305 304 304 305 305 304 304 304 305 304 305
327 327 326 327 328 326 326 326 325 326 329 329 328 328 329 329 329 329 330 330 330 328 327 327 327 327 327 329 327 326 323 319 315 311 308 305 301 296 300 312 311 308 304 301 305 321 324 322 318 314 316 321 320 320 304 298 297 295 295 297 299 297 297 301 299 299 306 308 308 307 307 307 305 305 304 304 303 303 303 301 301 302 304 304 304
327 325 324 325 325 328 326 326 325 327 329 329 328 328 328 329 329 329 330 330 329 328 327 327 326 324 324 325 325 322 319 316 314 312 311 309 305 303 294 294 299 301 298 297 297 302 308 311 316 310 305 303 304 298 295 294 293 293 292 292 292 291 292 292 295 305 307 306 306 306 304 305 305 304 304 303 303 302 303 301 301 301 303 302 302
Wind_Speed
11 11 11 11 12 10 10 9 9 9 9 10 10 10 9 10 9 9 8 7 7 7 6 7 6 5 4 6 7 6 6 5 5 5 5 5 5 6 7 6 6 5 5 5 5 5 5 4 4 3 3 3 3 4 4 3 2 2 1 2 4 3 2 1 2 1 2 3 2 5 6 3 3 1 1 3 3 4 3 3 2 2 2 2 2
5 7 9 9 10 11 10 9 9 11 10 10 11 11 10 10 10 10 7 7 8 8 8 7 6 6 6 6 5 5 5 5 5 5 6 4 5 6 7 6 6 6 5 5 5 5 4 4 3 4 4 4 4 3 3 3 3 2 2 1 1 1 2 1 1 1 2 2 4 6 5 4 3 2 2 5 4 4 4 4 4 5 5 4 3
7 10 9 10 12 12 11 10 11 13 12 13 12 11 10 10 10 9 8 8 8 9 8 8 6 6 7 5 7 4 3 4 5 4 4 5 5 6 6 6 5 5 5 6 5 5 5 5 5 4 4 4 3 3 3 3 2 3 3 2 1 1 3 2 3 0 0 0 1 0 3 4 4 3 2 4 5 4 3 5 5 5 5 4 3
12 11 12 11 11 11 10 11 12 11 10 10 11 12 10 10 10 10 9 9 9 9 8 8 8 6 5 5 5 4 4 3 3 2 4 4 5 5 5 6 6 5 6 6 4 5 5 5 4 3 4 3 4 3 3 3 2 2 2 2 2 1 2 2 2 2 1 1 2 2 1 1 2 3 5 4 3 5 4 6 4 4 5 6 5
13 11 11 11 11 12 14 13 11 12 12 12 12 12 9 13 12 12 10 10 9 9 9 7 5 5 5 4 4 4 4 4 3 2 3 4 3 5 6 6 6 6 6 6 6 6 5 4 4 3 3 3 3 3 3 4 2 1 2 3 3 2 0 1 2 1 1 1 1 1 1 1 1 2 5 2 3 3 4 5 5 5 7 6 5
14 14 14 14 13 11 10 12 13 12 13 12 12 13 12 11 11 10 9 9 9 9 9 8 8 8 7 6 5 4 5 4 6 6 5 5 6 5 6 7 7 6 6 6 6 5 5 4 4 4 3 3 4 3 3 1 1 2 2 3 3 2 2 1 2 2 2 2 2 0 1 0 1 0 1 3 4 0 2 3 4 4 6 6 5
12 12 11 12 12 12 12 13 14 14 14 11 11 11 12 11 11 12 11 9 9 9 9 8 8 7 10 9 8 8 7 5 4 4 6 6 5 6 7 6 6 7 5 5 5 5 5 4 5 4 3 3 3 3 2 3 3 3 3 3 3 3 3 1 2 2 3 2 2 2 2 0 2 1 1 1 4 4 2 2 3 4 6 5 4
14 14 14 14 14 16 16 15 13 14 12 10 11 11 12 12 11 11 10 9 9 9 9 9 9 9 8 8 7 7 8 7 6 6 5 4 5 6 5 5 6 5 5 5 5 5 5 4 4 4 4 4 4 4 4 3 2 1 2 2 3 3 4 3 2 0 1 1 2 2 3 2 1 2 3 2 2 3 6 1 2 3 6 3 3
16 14 15 15 15 15 14 13 13 11 11 12 12 11 11 11 11 10 11 10 9 10 10 10 9 10 9 8 7 6 6 6 5 3 5 5 6 4 5 5 5 4 5 6 5 5 4 4 4 4 4 4 3 3 2 3 3 3 3 2 3 3 3 3 2 3 2 2 0 1 1 1 2 1 1 2 3 2 4 2 6 3 0 1 4
14 15 15 15 15 14 14 12 11 12 11 11 11 11 11 10 11 11 11 9 9 10 10 11 10 9 9 8 9 7 5 3 4 5 5 5 6 6 5 5 5 5 4 4 5 4 4 4 5 5 5 4 2 3 3 2 2 2 3 3 3 3 4 4 4 3 3 3 2 1 1 0 1 1 1 1 1 2 3 5 5 7 7 4 4
13 13 14 14 14 13 11 14 14 12 9 10 10 11 10 11 11 12 12 9 9 11 11 11 10 9 9 10 10 9 7 7 6 4 4 4 5 5 5 6 5 5 4 4 5 5 5 4 5 5 5 4 4 4 4 4 4 4 3 3 3 4 3 4 4 4 3 3 3 3 3 3 3 3 3 2 2 1 1 4 4 3 3 6 2
13 13 13 13 10 10 11 13 13 13 11 11 11 11 11 11 11 13 11 11 9 10 11 10 10 10 9 10 10 9 10 8 9 9 8 8 7 7 5 4 4 3 3 4 4 4 5 5 5 5 5 5 5 5 4 4 4 3 3 3 3 3 2 3 3 3 3 2 3 3 3 3 2 3 3 3 4 2 3 3 4 4 4 2 2
14 14 13 12 14 14 14 14 12 12 13 14 13 12 11 11 12 13 13 11 10 10 11 11 10 10 10 10 9 8 9 10 9 9 8 8 7 7 6 6 5 4 4 5 5 6 5 5 5 5 5 5 5 4 5 4 4 4 4 4 3 4 4 4 3 4 4 4 4 3 2 3 4 3 2 3 2 2 3 3 4 2 4 4 3
15 14 15 15 15 14 15 14 14 13 13 14 14 13 11 11 12 13 14 11 10 10 11 10 11 10 10 9 9 8 9 9 9 9 8 8 8 8 8 8 7 7 7 7 6 6 6 6 6 6 6 6 5 6 5 5 4 5 4 5 5 5 3 4 4 4 3 4 2 2 3 4 4 3 3 3 3 3 3 4 3 2 2 4 2
14 14 16 16 16 16 14 14 14 14 14 14 12 13 12 12 13 14 13 12 12 12 10 11 10 9 9 9 9 8 9 8 8 8 8 8 7 7 7 7 8 7 7 7 6 7 7 6 6 6 6 5 5 5 5 5 4 4 4 5 5 4 4 4 4 4 4 5 4 5 4 3 4 3 4 5 4 4 4 3 3 2 2 2 2
14 15 16 16 15 14 13 13 13 13 14 13 14 13 13 14 14 15 15 13 12 12 11 11 10 8 9 9 10 9 7 7 6 5 6 7 8 8 8 8 7 7 6 6 7 7 7 6 5 6 6 6 6 6 6 5 5 5 5 4 6 3 4 5 5 4 5 6 6 4 2 4 4 4 4 4 5 4 4 3 3 3 3 5 1
15 15 15 16 13 13 14 14 13 14 13 15 16 16 17 15 14 15 14 11 13 13 12 10 10 10 10 10 9 8 8 9 8 7 8 6 7 7 8 8 7 6 6 6 7 6 6 6 6 6 6 6 6 6 6 6 5 5 5 5 6 5 4 5 4 5 5 5 4 5 6 5 5 4 3 3 4 3 4 4 5 6 5 2 3
17 16 16 15 16 17 16 15 16 17 17 17 17 16 14 14 14 15 13 14 14 13 12 12 12 11 11 10 9 9 9 8 7 8 7 7 6 6 5 6 6 6 6 6 6 7 6 6 6 6 6 6 6 5 5 5 5 5 5 5 6 4 4 4 4 5 5 4 4 3 4 5 4 4 5 4 4 5 5 5 4 4 6 6 4
14 15 13 12 14 14 15 16 17 17 17 16 15 13 11 12 13 14 16 17 13 9 9 9 10 9 8 10 10 8 7 7 7 7 8 8 8 7 7 7 6 5 5 6 6 6 6 5 5 6 5 6 5 5 5 5 4 5 4 5 5 4 4 6 5 4 5 3 4 5 4 5 4 5 4 4 4 4 5 5 4 4 5 6 6
14 13 14 15 16 16 18 18 18 17 17 16 15 13 15 15 14 13 12 9 9 12 12 12 11 9 9 8 7 7 8 9 9 10 8 8 8 7 6 5 7 6 6 6 6 6 6 6 5 5 5 5 5 5 5 5 4 5 4 4 4 3 5 6 7 4 3 4 4 5 5 5 4 4 4 5 5 5 5 5 5 5 5 6 5
14 15 15 16 15 15 16 15 16 15 12 10 10 14 15 13 13 14 14 14 14 13 12 12 11 12 11 10 8 9 10 9 9 9 8 7 5 5 6 6 4 5 5 5 5 5 5 5 5 5 6 6 6 6 5 4 5 5 4 5 5 4 5 6 5 6 4 4 4 5 6 6 4 5 5 5 5 5 4 4 4 4 5 5 6
15 16 16 15 14 14 14 13 10 9 11 13 14 14 14 15 16 16 15 13 14 13 14 13 10 9 10 11 13 12 11 9 10 8 9 8 6 5 6 4 6 5 5 6 6 5 5 5 5 6 6 6 6 6 5 5 5 6 6 4 5 5 6 7 5 6 5 4 4 5 6 6 5 6 5 5 5 5 5 5 5 5 6 6 6
16 16 14 14 14 14 15 16 17 18 18 18 15 15 16 17 16 14 15 16 15 14 11 9 9 10 12 13 12 11 11 11 10 8 8 8 8 7 5 6 6 5 5 5 6 6 6 6 6 6 6 6 7 7 6 5 6 6 6 6 6 6 7 7 6 7 6 5 5 6 7 6 3 5 6 6 5 6 5 6 7 5 6 7 5
13 12 11 12 11 12 11 12 13 13 12 13 14 15 15 14 15 14 15 16 14 11 11 10 10 13 14 12 12 11 12 11 12 10 12 11 10 9 7 7 6 5 6 6 5 6 5 6 7 7 7 7 7 7 7 6 7 7 7 7 7 6 6 6 7 7 7 6 6 6 6 6 5 6 6 5 4 5 5 5 6 5 6 7 6
10 11 11 9 10 12 13 14 14 14 14 14 14 14 14 13 13 14 15 15 12 9 10 11 12 13 12 12 11 11 13 13 13 11 13 11 10 10 8 7 7 6 6 5 5 4 5 6 7 8 8 8 8 8 7 7 7 6 7 7 7 6 6 7 7 7 6 6 7 7 8 5 4 6 6 5 5 6 6 5 6 5 6 5 5
11 9 8 13 14 12 11 12 12 13 14 14 14 14 14 13 14 14 13 10 11 10 10 11 12 12 12 13 11 11 14 14 13 12 13 11 10 9 9 7 8 8 6 6 7 6 6 7 8 8 8 8 8 7 8 8 7 6 6 6 6 6 6 6 7 7 7 7 7 7 7 5 5 6 7 6 5 7 5 6 6 6 6 5 6
12 13 11 6 7 12 13 13 14 14 13 13 14 14 13 13 13 13 11 9 9 10 10 12 13 14 14 14 15 16 15 16 14 13 11 11 11 11 11 11 9 8 9 9 8 8 7 8 8 8 8 8 8 7 7 7 7 7 6 6 6 6 6 6 6 7 7 6 6 6 6 6 6 7 7 7 6 6 5 7 6 6 5 5 6
4 5 8 13 13 11 12 13 12 13 12 11 11 11 12 12 13 11 8 9 9 11 13 14 15 15 15 16 16 15 14 13 13 12 12 11 10 10 9 7 7 9 10 9 8 8 9 8 9 8 8 7 7 6 7 7 7 7 7 7 7 6 6 6 7 6 6 6 6 6 7 7 7 7 7 7 6 7 5 6 6 5 5 5 6
9 9 9 9 10 11 11 11 12 10 11 12 10 10 9 10 10 8 10 12 11 12 13 14 15 15 15 13 12 12 12 9 8 10 9 8 8 7 5 6 8 10 8 8 7 8 9 9 8 7 7 6 6 7 6 7 7 7 7 7 6 6 6 7 6 6 5 6 6 6 7 7 8 9 11 10 9 8 5 6 6 5 5 5 5
11 10 10 9 9 9 9 8 7 9 11 9 10 10 11 11 9 7 9 8 11 12 13 13 14 14 11 12 14 12 11 11 10 5 3 4 7 4 3 9 10 9 8 8 7 9 9 9 8 7 7 6 6 6 7 11 8 6 6 5 5 6 6 7 6 6 6 6 6 6 6 11 11 11 11 12 12 12 12 9 7 5 6 5 5
9 8 8 8 7 6 6 8 9 9 10 10 9 8 6 6 6 8 9 10 12 12 13 14 14 13 13 14 14 14 14 14 13 9 6 8 6 7 8 9 9 7 8 8 9 10 9 8 7 7 7 7 6 5 9 9 10 10 6 5 6 6 6 6 6 6 7 7 6 6 6 8 8 8 8 10 11 12 12 13 13 13 10 8 6
8 8 7 7 8 8 9 9 8 7 6 6 6 5 5 7 7 9 10 10 11 12 13 14 14 13 14 16 16 15 14 13 12 10 9 9 10 11 12 13 11 10 9 8 9 10 8 6 5 6 7 7 6 8 10 10 10 11 9 6 5 5 6 6 6 6 6 6 6 6 5 4 5 5 5 6 7 10 11 11 12 12 11 12 11
8 9 10 10 10 9 8 7 6 8 7 7 8 9 11 11 11 10 9 11 12 13 13 14 13 14 15 16 15 14 13 13 14 13 11 11 11 11 12 12 12 11 7 8 9 7 7 6 7 8 8 7 6 8 11 12 12 11 9 7 5 6 6 7 6 6 6 6 6 5 5 5 4 6 6 5 5 5 8 10 9 9 9 11 11
6 7 8 6 6 6 7 9 10 11 13 11 11 12 11 8 8 8 11 11 12 12 13 14 13 14 14 14 13 13 12 11 11 11 10 12 11 13 12 10 9 6 8 8 6 7 6 7 8 8 8 7 7 9 12 12 10 9 9 7 6 7 7 7 6 6 5 7 6 5 5 6 5 5 5 5 4 4 6 7 6 6 7 8 8
8 7 7 9 10 9 9 8 8 7 5 5 7 6 4 6 8 10 9 11 11 12 12 12 13 12 12 12 12 11 11 11 12 11 11 11 12 11 10 9 8 8 8 7 7 7 8 8 8 8 7 8 7 11 12 9 8 9 9 7 5 5 5 5 5 5 6 6 4 4 5 5 5 6 5 5 4 5 6 7 8 9 9 9 8
9 10 9 10 10 11 11 9 5 6 6 7 7 6 7 7 7 9 9 9 10 11 11 10 11 12 12 12 12 11 11 11 11 11 12 13 12 11 9 8 7 6 5 5 6 7 8 8 7 8 8 9 7 10 7 7 8 9 7 4 5 5 4 4 5 5 4 3 3 4 4 5 6 5 7 9 6 5 6 8 9 10 9 8 7
10 10 11 8 7 6 6 6 7 7 8 7 6 7 7 7 8 7 8 9 9 11 11 12 11 11 11 12 12 12 13 14 14 13 12 13 13 11 9 6 6 5 6 7 7 8 6 7 8 8 9 8 7 4 6 6 7 7 6 4 4 3 3 4 6 4 2 3 3 4 4 4 5 6 7 8 6 3 6 8 8 9 8 8 7
7 5 5 6 6 6 6 8 9 6 5 6 8 8 8 8 7 7 8 9 10 11 10 10 11 11 12 11 12 13 13 13 12 14 14 13 11 9 7 5 5 5 6 7 6 6 6 7 9 9 9 8 5 5 8 8 9 9 7 5 4 3 4 5 4 2 1 2 4 6 5 5 7 8 6 6 5 4 6 8 8 9 9 8 7
3 6 9 7 6 7 7 7 8 8 5 6 8 9 8 8 7 8 8 9 9 8 9 12 11 10 10 11 12 13 14 14 14 15 14 12 10 8 4 4 5 5 7 6 6 6 7 6 6 6 5 7 5 4 8 9 8 8 7 4 4 4 4 4 2 3 2 2 2 2 3 3 4 5 7 6 5 5 5 6 6 5 6 7 5
7 8 6 6 6 7 7 6 6 5 6 7 8 8 8 8 6 5 6 7 9 9 8 6 6 8 9 10 11 13 13 14 14 13 11 9 6 6 6 6 6 7 7 6 6 7 8 6 5 6 6 6 6 5 7 7 7 7 6 5 3 4 4 4 1 2 3 4 2 3 3 2 4 5 6 6 5 4 3 3 2 4 5 6 4
9 8 6 8 8 9 9 8 6 5 4 4 4 5 5 4 4 5 6 5 4 4 6 7 7 8 10 10 10 12 13 12 12 11 8 6 6 7 7 7 7 6 6 6 7 7 5 5 5 4 4 4 5 7 6 9 7 6 6 5 2 2 1 1 2 3 1 3 4 3 3 4 5 6 6 6 4 2 3 3 3 3 2 3 3
8 6 7 7 8 9 9 8 6 6 6 5 6 6 5 5 5 5 5 4 5 6 6 7 8 9 10 10 10 10 9 8 7 6 5 2 1 3 4 5 5 5 6 6 5 5 5 5 4 4 4 7 7 6 6 6 7 7 6 5 3 2 2 2 1 1 1 2 3 4 4 5 7 7 8 7 5 2 2 3 3 2 5 5 5
6 7 6 7 8 8 8 6 5 6 6 6 7 7 5 5 5 5 4 5 6 6 7 7 8 8 8 8 8 8 6 4 5 6 5 3 3 4 5 5 5 4 5 6 6 7 7 6 5 3 3 3 2 4 6 5 6 7 7 6 5 4 4 3 1 2 2 3 3 4 5 6 8 8 8 6 3 2 1 2 5 6 5 6 5
6 6 5 7 7 6 7 7 6 6 6 6 6 6 5 5 4 3 5 6 7 7 7 7 6 7 7 7 7 6 6 7 8 7 7 7 7 5 2 1 3 5 5 5 5 5 6 6 5 4 4 2 2 4 6 7 6 8 6 7 6 5 5 2 2 2 2 3 3 3 4 8 6 4 5 6 5 2 2 3 4 5 4 3 3
5 5 4 6 7 8 7 8 6 6 5 5 5 7 5 6 4 5 7 7 7 7 7 7 8 8 8 8 8 8 8 8 8 7 5 8 5 4 4 5 6 5 5 6 5 5 6 6 6 6 4 4 4 3 4 6 8 8 7 6 6 7 5 5 1 1 2 3 3 6 5 4 7 6 7 5 4 1 2 3 3 4 2 2 2
4 5 6 7 7 7 8 8 6 5 5 5 5 6 7 6 5 6 7 8 8 9 8 9 9 9 10 10 10 10 9 9 9 9 9 5 5 6 7 6 6 6 6 6 6 6 7 7 7 4 3 3 4 3 4 4 5 5 4 5 5 5 4 2 1 2 3 4 6 2 7 5 4 3 3 3 3 3 1 2 3 4 2 3 3
1 2 5 6 7 7 7 8 7 4 5 5 6 5 7 7 7 6 7 7 8 9 9 8 8 8 8 8 10 7 6 6 6 6 6 6 7 6 5 4 4 4 5 6 6 7 7 6 7 6 3 4 3 3 4 3 2 2 2 2 2 2 3 1 1 1 2 1 2 3 5 7 7 8 7 5 4 3 2 3 3 3 3 3 3
1 1 3 5 6 7 7 8 8 7 6 6 6 6 6 6 6 6 6 7 7 7 8 7 8 7 7 8 8 11 10 7 7 7 6 5 2 3 4 5 7 8 7 7 8 7 8 7 6 5 5 5 4 4 4 4 4 3 2 2 1 1 1 1 1 0 0 1 3 4 4 3 3 4 3 2 2 2 2 2 3 3 3 4 4
2 2 3 5 6 7 7 8 7 6 6 6 6 5 5 6 5 5 6 7 7 7 7 7 7 7 7 7 8 7 6 6 5 6 6 5 2 2 3 3 0 1 5 7 8 7 6 5 6 7 7 6 5 7 7 4 6 5 5 4 3 4 3 2 2 1 1 3 3 3 2 2 2 2 1 1 1 1 1 2 3 3 3 3 3
4 5 6 5 5 7 7 7 6 6 6 6 6 5 5 6 6 7 8 9 9 9 9 9 8 9 8 7 5 4 4 5 5 4 5 6 9 7 4 1 2 3 3 6 3 5 4 6 6 3 2 4 6 6 9 11 9 7 6 5 5 5 3 2 3 4 4 3 2 2 1 1 1 1 1 0 1 1 2 2 2 3 3 3 3
2 3 3 3 4 5 7 7 7 6 6 6 6 6 6 6 7 8 9 10 10 9 9 9 7 6 5 6 6 6 6 5 4 5 5 6 5 5 9 8 5 3 4 2 4 4 7 8 8 6 4 8 9 12 12 10 9 8 8 8 7 6 6 5 4 5 3 1 1 2 1 1 1 1 1 1 0 1 2 2 2 2 2 3 4
Wind_Direction
209 202 200 200 198 195 196 194 196 194 195 190 189 192 192 192 187 201 199 183 176 180 187 186 189 196 197 206 215 210 206 204 208 214 207 209 150 158 195 188 170 188 172 168 192 198 200 191 184 199 200 191 198 219 224 224 222 198 212 241 251 282 298 265 279 215 328 316 339 316 312 312 297 296 278 344 349 345 349 358 7 20 23 4 328
210 209 209 205 202 199 193 194 192 193 201 193 194 195 196 193 193 203 192 185 188 190 190 190 189 186 175 189 182 181 184 182 203 205 210 173 170 175 187 177 177 185 174 174 185 183 179 183 186 198 189 203 214 227 231 242 242 219 193 252 247 283 294 258 289 201 16 32 336 339 323 343 23 27 18 359 357 356 360 9 18 30 29 25 23
206 212 207 205 204 200 195 195 198 198 194 194 196 194 195 195 200 199 192 189 196 193 186 192 187 181 180 175 180 174 212 191 184 185 168 165 172 176 181 182 175 180 176 180 181 182 185 190 201 190 190 196 210 230 236 247 231 232 203 211 288 282 287 317 10 267 342 172 51 348 9 344 337 8 350 350 349 355 5 12 12 21 15 11 8
209 205 207 207 204 200 198 199 200 197 198 198 194 195 194 197 199 197 195 196 198 199 193 192 186 178 172 161 171 155 172 157 129 111 147 145 182 184 186 185 184 183 185 184 182 187 189 192 185 172 195 195 195 205 215 244 222 192 162 190 185 301 343 319 1 1 191 55 358 19 56 38 333 10 334 322 342 341 10 6 6 5 0 356 2
208 206 204 203 204 203 200 200 194 197 198 195 194 195 195 197 198 195 195 197 200 198 193 180 158 122 111 84 100 88 50 80 119 161 181 189 168 191 201 189 185 183 186 188 186 186 192 183 173 185 179 194 186 195 203 227 212 231 151 149 174 186 199 330 314 342 325 293 141 167 38 46 191 287 336 285 350 4 3 350 357 359 1 353 355
204 204 200 198 201 201 201 198 197 200 200 198 194 195 194 197 196 195 197 198 198 195 186 169 175 161 152 153 159 179 186 160 184 195 199 198 204 195 191 189 182 183 184 183 190 174 181 177 172 167 165 174 183 201 213 207 199 194 196 165 172 176 142 97 313 318 333 320 259 175 158 166 272 128 21 341 328 158 312 334 337 357 354 345 346
211 212 203 192 196 197 199 199 199 199 203 194 193 196 196 194 194 193 195 198 195 189 181 175 173 174 178 181 183 188 194 219 210 207 191 207 188 180 190 181 184 176 176 178 184 181 166 163 163 164 167 161 177 166 166 202 195 185 162 164 159 146 150 178 237 267 338 48 344 292 286 307 110 170 105 233 340 314 304 324 324 350 347 341 345
203 205 202 200 193 193 198 198 197 201 195 189 194 194 195 196 191 195 197 196 191 182 182 180 178 179 182 187 189 190 195 205 201 205 202 173 183 189 169 176 178 175 161 172 174 170 152 149 151 163 166 171 172 179 183 180 148 162 153 139 145 162 172 190 245 248 81 289 317 312 299 297 252 218 211 173 194 290 313 299 183 346 345 344 5
201 201 203 202 200 199 196 197 200 194 190 190 192 193 195 195 193 194 196 194 188 183 181 185 183 181 182 182 191 201 193 205 191 177 168 172 171 163 172 165 167 171 166 163 167 158 158 164 160 168 166 171 162 152 152 159 167 156 157 163 176 183 194 206 222 244 194 226 198 291 329 332 317 299 241 181 168 217 277 283 316 343 355 235 347
207 205 202 202 204 201 196 193 191 198 193 191 190 189 192 190 194 192 199 194 186 185 184 183 184 177 180 183 188 191 192 175 155 164 168 161 164 168 164 156 161 163 174 167 166 174 175 169 167 180 177 171 149 167 148 144 157 156 175 177 179 188 209 207 219 233 217 226 209 158 152 89 42 37 346 173 257 210 255 292 304 318 329 314 338
203 205 204 205 202 199 189 191 197 193 188 187 189 190 189 189 192 194 199 192 185 187 182 184 183 181 182 182 185 185 185 174 160 168 154 144 163 165 165 170 161 174 168 179 193 178 177 176 178 181 172 172 161 163 187 194 205 201 190 168 180 194 191 197 211 222 222 224 215 198 196 191 193 197 203 205 192 215 315 291 292 281 261 304 276
199 201 205 203 195 198 194 200 194 191 184 187 193 190 190 191 190 196 199 193 189 188 187 185 183 186 184 180 184 185 177 178 178 177 178 174 174 172 175 147 166 156 166 168 186 179 177 185 187 169 176 175 180 190 192 206 203 197 193 191 208 208 192 182 188 191 205 217 220 210 204 190 197 208 204 174 180 214 196 264 289 314 307 229 252
196 199 199 199 198 195 195 199 193 190 192 191 191 190 191 192 192 196 202 193 193 188 191 189 187 188 185 183 185 181 182 182 182 178 177 174 174 169 161 176 158 155 189 184 188 183 181 178 177 182 190 197 188 187 212 213 208 203 204 211 207 213 213 203 194 218 193 194 213 190 184 180 204 213 169 178 213 158 190 237 264 242 251 308 323
198 197 198 199 200 197 194 192 192 193 195 193 191 190 191 193 194 198 204 192 191 190 193 191 193 191 186 183 183 180 186 183 182 177 177 176 174 175 175 176 174 183 179 191 189 181 188 186 180 191 198 196 187 199 207 209 203 208 216 221 220 224 209 209 219 226 203 218 196 190 205 195 210 185 193 172 172 167 198 219 243 251 240 270 321
198 196 199 201 200 195 191 191 191 193 195 194 193 195 190 195 195 200 202 197 192 193 191 194 194 190 188 186 182 182 183 183 182 176 168 169 179 174 180 175 175 185 180 192 175 178 184 180 184 191 198 203 202 205 210 209 205 212 219 227 237 220 212 204 224 216 225 226 211 210 217 207 216 191 183 198 184 197 193 179 168 269 293 228 269
200 202 203 203 199 194 190 189 191 193 195 194 196 194 196 199 198 201 203 197 194 193 195 192 192 187 188 186 188 185 182 174 166 165 166 170 172 177 180 182 186 176 190 173 182 175 178 185 190 200 202 205 208 205 208 205 204 206 225 223 239 211 211 213 227 209 229 231 226 211 197 231 214 205 198 196 193 191 185 153 161 166 220 284 218
199 203 203 201 195 194 192 190 191 194 194 197 198 197 199 197 197 201 203 197 195 197 192 189 187 186 193 191 186 183 175 171 171 166 167 176 176 181 177 186 177 174 178 185 176 184 180 185 193 202 205 208 209 210 208 208 199 205 218 221 236 224 214 222 214 214 226 223 223 208 211 220 222 211 208 203 197 188 193 176 177 186 166 216 278
198 201 202 197 195 192 192 193 193 195 198 200 202 200 200 198 199 200 199 202 203 194 191 189 190 191 189 192 189 182 174 167 158 163 166 168 182 182 174 161 178 183 176 182 181 184 189 190 190 202 206 203 210 215 214 215 201 213 223 234 239 236 233 243 227 220 229 211 221 220 217 226 226 205 214 208 193 198 188 193 188 182 162 191 201
195 200 197 196 197 196 193 195 197 199 202 202 202 197 198 202 204 201 203 206 199 188 189 194 195 193 188 188 183 175 161 153 157 162 165 174 177 178 173 179 175 176 177 177 185 192 191 193 191 204 204 211 216 225 222 224 209 225 227 239 243 229 238 253 247 218 235 212 216 231 218 235 221 225 225 215 213 194 203 191 195 171 187 187 188
194 196 198 198 198 195 194 196 196 199 200 202 196 194 200 203 200 205 209 199 182 189 191 195 193 186 187 183 175 155 154 161 167 164 172 177 176 170 168 167 188 179 184 182 184 193 192 192 192 200 211 218 223 227 219 218 207 221 221 235 238 209 232 240 255 231 235 224 229 239 239 238 229 222 231 225 216 213 202 198 193 192 198 194 178
193 197 199 199 198 196 198 199 202 201 203 197 193 199 206 199 202 204 202 197 196 194 190 197 187 192 183 169 147 155 165 169 170 168 164 167 162 166 171 186 167 188 177 181 192 198 197 198 199 206 213 220 225 232 216 206 210 227 226 225 241 213 225 243 240 255 231 224 227 237 248 246 232 229 227 229 226 220 209 214 202 198 210 195 186
194 199 199 197 196 195 197 198 197 191 195 195 200 201 200 200 204 203 202 200 199 195 196 193 185 175 171 164 171 171 169 167 166 163 167 153 147 173 186 165 184 196 177 191 198 202 200 198 203 217 221 222 227 233 222 200 214 225 237 210 231 221 227 245 238 250 254 230 227 238 248 250 227 233 235 229 226 222 212 214 214 204 217 221 195
197 200 198 196 192 190 191 191 190 193 197 198 199 200 202 205 204 201 200 204 200 200 191 175 171 175 181 180 168 167 164 165 158 163 160 152 157 175 176 179 193 194 194 200 204 201 201 199 208 219 223 228 228 233 226 204 218 220 230 235 227 227 229 239 240 245 248 244 239 238 246 246 229 235 234 236 228 230 219 222 227 215 226 233 211
204 198 195 193 187 185 186 189 195 199 201 201 202 205 207 207 204 201 204 205 200 191 180 170 170 181 181 174 173 165 163 163 161 164 163 171 170 167 175 180 194 193 199 212 209 207 202 199 207 219 223 229 232 232 233 214 219 215 222 233 234 228 230 236 242 250 247 229 235 243 247 236 230 240 246 239 231 228 225 228 235 232 227 240 237
196 193 191 181 177 183 190 192 194 198 201 201 204 207 207 208 204 204 209 205 195 181 173 173 176 179 176 178 171 164 169 173 171 169 177 181 172 160 158 182 190 202 209 212 222 217 211 205 209 217 221 223 226 227 229 231 226 220 223 229 233 230 229 233 237 243 243 234 233 234 247 229 212 235 249 246 233 229 228 228 236 237 235 239 243
194 186 173 186 189 187 187 191 195 200 201 201 204 206 207 207 208 207 209 193 187 180 172 165 174 172 179 180 167 168 177 177 174 175 179 179 168 162 156 180 190 201 208 207 213 221 217 218 215 217 219 223 223 222 223 229 230 221 219 224 226 225 230 230 233 232 235 230 235 239 242 236 218 223 242 242 234 237 233 234 237 241 242 244 246
188 188 189 168 173 189 191 192 197 199 200 202 204 206 206 207 210 208 202 186 179 169 160 165 172 179 183 182 176 182 180 181 179 178 175 174 166 152 166 191 188 192 205 213 213 218 223 222 221 218 222 223 223 221 223 225 226 219 214 214 220 221 226 226 227 232 233 231 234 239 245 232 229 225 234 236 234 237 233 240 237 238 245 243 249
168 165 170 186 189 186 189 194 196 200 201 206 207 206 207 205 211 204 182 171 172 165 166 173 178 186 187 186 186 186 181 179 177 179 182 179 169 168 172 172 178 194 208 209 216 218 225 220 221 218 223 222 222 222 221 220 217 212 205 212 215 218 226 229 233 234 231 233 232 236 240 237 231 230 226 234 227 238 231 242 242 235 237 239 248
183 190 187 183 185 188 192 192 198 196 198 204 204 206 207 211 211 187 180 182 169 165 171 177 183 188 192 183 178 184 182 157 171 180 178 182 170 156 143 181 203 211 199 202 218 227 229 226 223 220 224 218 213 216 212 208 205 208 207 220 223 227 230 238 242 237 231 231 235 236 239 239 233 237 234 233 235 229 226 238 246 229 232 234 246
189 191 190 187 189 188 189 184 184 191 200 199 203 205 205 208 202 173 178 169 160 171 172 180 187 189 179 176 181 183 173 161 181 154 136 85 60 55 203 227 221 211 195 193 210 225 230 226 219 217 216 210 213 214 216 211 208 208 213 228 236 237 235 237 242 254 255 238 240 240 246 247 247 246 244 243 243 244 242 242 248 230 233 232 240
195 184 181 182 181 174 164 176 190 194 197 201 204 206 204 199 173 171 174 169 168 170 177 180 187 182 180 178 181 185 180 178 175 139 102 101 134 187 205 227 225 212 215 212 217 225 226 223 214 205 206 213 216 218 222 222 223 227 227 228 234 244 240 236 229 234 247 255 250 242 248 257 257 254 249 248 250 252 255 253 250 251 250 242 245
191 178 167 170 173 172 178 187 190 188 185 192 196 187 178 194 173 176 172 167 171 173 178 185 185 180 180 183 188 184 180 177 170 155 127 146 185 197 205 214 216 214 218 217 223 228 229 218 211 210 214 215 218 223 225 228 230 232 228 230 236 245 247 237 231 229 239 247 256 258 253 247 247 242 243 249 250 254 257 259 256 251 248 247 232
180 172 179 180 179 179 176 171 168 176 179 189 181 183 199 194 186 181 157 170 176 178 181 185 184 184 185 187 186 182 178 176 174 169 165 179 201 208 211 215 219 216 217 225 228 227 224 209 211 212 217 218 222 225 223 224 227 230 229 222 238 236 237 240 226 224 231 240 247 252 263 261 251 242 247 244 246 268 276 268 255 248 242 246 251
176 179 171 164 153 158 169 173 178 188 193 193 187 195 204 187 171 155 167 175 175 183 184 187 185 188 186 182 181 178 173 165 160 164 174 196 204 211 213 216 222 217 222 234 234 223 217 212 213 213 216 220 222 230 224 223 224 225 223 208 217 219 226 233 228 227 233 241 244 248 259 267 269 262 253 251 252 271 272 280 269 266 270 268 254
168 166 164 166 172 176 182 189 199 191 177 161 193 200 154 152 160 167 173 171 180 180 187 188 188 186 180 178 175 171 158 150 161 175 196 197 216 219 213 209 211 216 217 222 221 218 220 219 218 215 219 223 228 228 228 220 222 226 228 213 206 208 212 223 234 236 241 250 258 244 243 255 262 266 263 280 294 282 281 282 281 280 277 276 276
180 169 181 177 176 180 182 190 171 152 170 181 183 162 157 164 160 168 172 177 176 182 187 185 188 183 178 174 169 158 150 146 154 190 205 211 215 213 212 205 210 216 209 203 215 217 222 222 220 219 220 231 233 228 215 210 216 228 217 198 190 184 190 216 240 240 243 244 237 231 232 242 253 265 276 280 281 281 271 281 285 284 285 281 277
182 179 181 179 170 155 153 137 152 164 165 174 152 149 148 147 162 171 168 173 175 184 188 188 186 177 173 170 165 159 156 160 173 196 205 211 214 213 212 199 206 204 207 206 217 218 219 219 221 219 223 232 237 199 185 199 208 195 179 183 168 162 189 221 238 235 227 229 218 220 225 247 270 276 283 297 328 283 258 258 264 274 282 289 287
128 92 103 117 118 117 130 141 144 147 149 139 144 146 147 156 166 162 169 177 186 192 184 181 183 179 173 165 163 161 163 170 175 196 210 211 215 219 214 192 198 199 216 221 217 225 220 218 219 221 215 221 228 186 188 187 177 186 187 185 172 178 224 234 246 226 203 231 251 264 272 279 284 287 313 341 339 299 258 256 262 276 286 289 292
66 121 131 131 128 128 132 127 130 129 133 133 137 140 147 164 171 173 177 181 189 182 179 187 184 172 163 161 163 167 170 174 190 203 209 208 208 208 176 163 192 200 221 215 205 219 228 221 217 211 188 194 196 184 180 175 177 187 185 162 155 177 224 244 266 298 303 268 292 321 306 293 288 302 321 313 320 291 264 268 276 282 280 287 299
77 66 77 102 114 108 94 90 91 104 123 135 135 143 157 170 174 155 172 183 191 195 190 164 147 157 160 164 170 175 181 185 195 203 211 206 172 161 175 188 196 202 212 208 209 208 221 200 177 180 187 185 157 162 168 161 167 176 168 152 151 172 231 258 257 308 324 324 328 313 306 323 320 316 318 320 323 333 286 299 278 254 279 295 333
66 61 64 67 60 65 66 66 66 74 77 87 99 99 90 83 109 152 187 188 163 133 144 155 151 158 165 173 178 186 189 194 197 192 203 192 177 186 188 196 209 204 212 210 209 213 194 151 161 143 150 166 179 166 157 154 163 167 164 154 134 138 190 267 301 317 310 313 313 310 310 310 311 310 313 316 297 304 335 284 258 242 268 330 341
68 71 74 75 67 64 65 58 65 83 84 93 102 101 100 116 126 173 185 144 131 128 131 143 159 166 172 180 186 195 196 194 186 151 163 149 309 221 205 215 217 204 203 199 183 165 149 161 157 180 169 177 195 162 137 154 155 145 143 141 120 158 167 148 35 299 302 281 283 293 297 302 309 319 323 310 288 235 273 258 250 324 330 337 328
74 63 52 73 70 71 76 92 95 91 89 95 105 110 121 127 167 180 139 128 124 128 138 145 156 166 175 183 188 184 178 152 113 122 129 158 194 217 225 218 205 180 177 181 179 168 169 164 160 202 214 215 114 127 131 133 141 127 124 115 123 138 138 117 113 265 277 284 286 284 284 301 322 319 312 304 256 136 201 237 324 319 317 317 302
53 71 83 87 90 89 83 76 74 81 91 98 115 121 130 145 165 144 131 125 128 134 137 142 147 158 162 167 172 165 128 117 128 144 173 204 219 209 196 94 161 179 181 189 192 177 161 160 166 210 203 155 154 133 130 137 143 140 131 136 155 148 131 126 153 238 255 269 271 275 297 316 335 17 34 50 80 123 26 352 326 321 301 317 334
83 82 81 69 83 86 81 74 72 87 95 108 122 131 136 145 176 156 142 137 131 133 137 140 148 152 154 154 151 151 148 147 151 139 192 225 206 140 169 191 183 171 177 189 184 173 162 161 193 203 166 186 160 136 130 145 144 138 134 135 118 122 131 129 162 233 258 261 286 290 308 57 70 68 78 93 101 116 333 305 302 296 322 327 321
84 83 87 97 94 94 96 97 84 101 112 127 135 140 144 172 175 161 150 143 140 141 145 153 158 162 162 160 158 161 164 163 161 169 185 182 171 181 198 193 182 183 186 188 182 170 170 180 204 225 194 171 152 146 144 138 132 120 118 96 82 110 114 108 247 254 280 292 283 273 109 99 108 95 82 73 66 73 50 3 351 354 333 323 316
48 108 110 104 110 107 118 120 120 140 137 135 138 145 156 161 169 161 150 147 147 150 154 158 161 160 161 162 157 155 160 168 166 169 178 189 193 195 194 171 169 175 188 190 174 176 180 182 189 205 193 175 164 165 164 146 105 116 140 120 82 97 72 83 191 257 296 275 5 69 89 74 71 67 65 56 49 41 19 358 347 335 329 323 320
338 74 108 110 115 124 137 142 147 162 146 139 146 161 167 167 165 166 149 144 145 150 150 148 151 154 164 171 164 171 168 159 164 170 187 193 155 115 153 180 194 192 187 192 183 185 185 184 184 168 176 177 177 183 196 184 164 166 146 119 125 166 199 215 210 236 345 34 66 90 91 81 68 62 60 46 33 17 359 337 325 326 328 326 325
170 157 141 156 150 147 154 151 153 159 142 143 157 169 174 171 162 143 136 132 131 128 132 145 157 160 169 182 183 178 161 145 98 72 64 53 40 83 151 143 355 195 205 186 188 197 190 175 163 162 168 177 186 203 212 176 171 165 149 149 172 194 185 200 131 133 112 79 76 76 86 76 71 74 79 52 358 311 321 326 326 322 319 312 301
193 167 153 143 140 137 144 144 153 158 153 154 160 165 165 163 147 145 144 144 149 151 155 165 176 182 182 170 132 124 111 114 115 113 113 75 55 59 25 113 157 344 314 284 243 203 182 149 129 109 165 178 193 197 135 138 142 140 152 160 150 149 159 144 112 103 74 74 71 105 87 115 126 147 193 234 299 296 305 315 314 299 303 308 323
76 80 96 122 139 143 142 154 162 165 162 159 160 160 160 161 157 159 161 162 160 161 174 183 187 172 162 172 137 118 133 122 132 140 132 133 133 80 61 55 51 25 359 339 203 216 151 156 149 134 61 55 100 118 131 137 141 157 165 175 177 175 164 133 125 114 74 97 118 135 121 131 154 183 200 214 317 303 295 293 292 312 317 326 331